Time,TemperatureF,DewpointF,PressureIn,WindDirection,WindDirectionDegrees,WindSpeedMPH,WindSpeedGustMPH,Humidity,HourlyPrecipIn,Conditions,Clouds,dailyrainin,SolarRadiationWatts/m^2,SoftwareType,DateUTC
2013-03-11 00:11:00,28.0,19.0,-100.00,NW,311,2.0,5.0,68,0.00,,,0.35,0.000000,,2013-03-11 06:11:00,
2013-03-11 00:33:00,28.0,17.0,-100.00,SSW,195,2.0,3.0,63,0.00,,,0.35,0.000000,,2013-03-11 06:33:00,
2013-03-11 00:42:00,28.0,17.0,-100.00,SSW,195,2.0,3.0,63,0.00,,,0.35,0.000000,,2013-03-11 06:42:00,
2013-03-11 00:53:00,28.0,17.0,-100.00,SSW,195,2.0,3.0,63,0.00,,,0.35,0.000000,,2013-03-11 06:53:00,
2013-03-11 01:02:00,28.0,17.0,-100.00,SSW,195,2.0,3.0,63,0.00,,,0.35,0.000000,,2013-03-11 07:02:00,
2013-03-11 01:11:00,28.0,17.0,-100.00,SSW,195,2.0,3.0,63,0.00,,,0.35,0.000000,,2013-03-11 07:11:00,
2013-03-11 01:32:00,27.0,20.0,-100.00,North,1,0.0,6.0,74,0.00,,,0.35,0.000000,,2013-03-11 07:32:00,
2013-03-11 01:42:00,27.0,20.0,-100.00,North,1,0.0,6.0,74,0.00,,,0.35,0.000000,,2013-03-11 07:42:00,
2013-03-11 01:52:00,27.0,20.0,-100.00,North,1,0.0,6.0,74,0.00,,,0.35,0.000000,,2013-03-11 07:52:00,
2013-03-11 02:11:00,27.0,20.0,-100.00,North,1,0.0,6.0,74,0.00,,,0.35,0.000000,,2013-03-11 08:11:00,
2013-03-11 02:12:00,26.0,19.0,-100.00,East,87,3.0,5.0,74,0.00,,,-99.99,0.000000,,2013-03-11 08:12:00,
2013-03-11 02:42:00,26.0,19.0,-100.00,East,87,3.0,5.0,74,0.00,,,-99.99,0.000000,,2013-03-11 08:42:00,
2013-03-11 02:52:00,26.0,19.0,-100.00,East,87,3.0,5.0,74,0.00,,,-99.99,0.000000,,2013-03-11 08:52:00,
2013-03-11 03:32:00,26.0,18.0,-100.00,NE,50,3.0,5.0,72,0.00,,,0.35,0.000000,,2013-03-11 09:32:00,
2013-03-11 03:42:00,26.0,18.0,-100.00,NE,50,3.0,5.0,72,0.00,,,0.35,0.000000,,2013-03-11 09:42:00,
2013-03-11 03:52:00,26.0,18.0,-100.00,NE,50,3.0,5.0,72,0.00,,,0.35,0.000000,,2013-03-11 09:52:00,
2013-03-11 04:11:00,26.0,18.0,-100.00,NE,50,3.0,5.0,72,0.00,,,0.35,0.000000,,2013-03-11 10:11:00,
2013-03-11 04:33:00,26.0,18.0,-100.00,SE,142,2.0,4.0,71,0.00,,,0.35,0.000000,,2013-03-11 10:33:00,
2013-03-11 04:42:00,26.0,18.0,-100.00,SE,142,2.0,4.0,71,0.00,,,0.35,0.000000,,2013-03-11 10:42:00,
2013-03-11 04:52:00,26.0,18.0,-100.00,SE,142,2.0,4.0,71,0.00,,,0.35,0.000000,,2013-03-11 10:52:00,
2013-03-11 05:11:00,26.0,18.0,-100.00,SE,142,2.0,4.0,71,0.00,,,0.35,0.000000,,2013-03-11 11:11:00,
2013-03-11 05:33:00,25.0,18.0,-100.00,SSW,211,2.0,5.0,73,-99.99,,,-99.99,0.000000,,2013-03-11 11:33:00,
2013-03-11 05:43:00,25.0,18.0,-100.00,SSW,211,2.0,5.0,73,-99.99,,,-99.99,0.000000,,2013-03-11 11:43:00,
2013-03-11 05:53:00,25.0,18.0,-100.00,SSW,211,2.0,5.0,73,-99.99,,,-99.99,0.000000,,2013-03-11 11:53:00,
2013-03-11 06:11:00,25.0,18.0,-100.00,SSW,211,2.0,5.0,73,-99.99,,,-99.99,0.000000,,2013-03-11 12:11:00,
2013-03-11 06:12:00,24.0,18.0,-100.00,SSW,208,2.0,4.0,79,0.00,,,-99.99,0.000000,,2013-03-11 12:12:00,
2013-03-11 06:33:00,24.0,18.0,-100.00,SSW,208,2.0,4.0,79,0.00,,,-99.99,0.000000,,2013-03-11 12:33:00,
2013-03-11 06:43:00,24.0,18.0,-100.00,SSW,208,2.0,4.0,79,0.00,,,-99.99,0.000000,,2013-03-11 12:43:00,
2013-03-11 06:53:00,24.0,18.0,-100.00,SSW,208,2.0,4.0,79,0.00,,,-99.99,0.000000,,2013-03-11 12:53:00,
2013-03-11 07:02:00,24.0,18.0,-100.00,SSW,208,2.0,4.0,79,0.00,,,-99.99,0.000000,,2013-03-11 13:02:00,
2013-03-11 07:33:00,24.0,18.0,-100.00,West,280,0.0,3.0,79,0.00,,,0.35,0.000000,,2013-03-11 13:33:00,
2013-03-11 07:43:00,24.0,18.0,-100.00,West,280,0.0,3.0,79,0.00,,,0.35,0.000000,,2013-03-11 13:43:00,
2013-03-11 07:52:00,24.0,18.0,-100.00,West,280,0.0,3.0,79,0.00,,,0.35,0.000000,,2013-03-11 13:52:00,
2013-03-11 08:01:00,24.0,18.0,-100.00,West,280,0.0,3.0,79,0.00,,,0.35,0.000000,,2013-03-11 14:01:00,
2013-03-11 08:43:00,25.0,16.0,-100.00,NNW,331,4.0,6.0,67,0.00,,,0.35,35.000000,,2013-03-11 14:43:00,
2013-03-11 08:53:00,25.0,16.0,-100.00,NNW,331,4.0,6.0,67,0.00,,,0.35,35.000000,,2013-03-11 14:53:00,
2013-03-11 09:02:00,25.0,16.0,-100.00,NNW,331,4.0,6.0,67,0.00,,,0.35,35.000000,,2013-03-11 15:02:00,
2013-03-11 09:12:00,32.0,20.0,-100.00,SSW,193,2.0,7.0,61,0.00,,,0.35,192.000000,,2013-03-11 15:12:00,
2013-03-11 09:32:00,32.0,20.0,-100.00,SSW,193,2.0,7.0,61,0.00,,,0.35,192.000000,,2013-03-11 15:32:00,
2013-03-11 10:02:00,32.0,20.0,-100.00,SSW,193,2.0,7.0,61,0.00,,,0.35,192.000000,,2013-03-11 16:02:00,
2013-03-11 10:12:00,34.0,20.0,-100.00,South,179,6.0,10.0,57,0.00,,,0.35,413.000000,,2013-03-11 16:12:00,
2013-03-11 10:32:00,34.0,20.0,-100.00,South,179,6.0,10.0,57,0.00,,,0.35,413.000000,,2013-03-11 16:32:00,
2013-03-11 10:43:00,34.0,20.0,-100.00,South,179,6.0,10.0,57,0.00,,,0.35,413.000000,,2013-03-11 16:43:00,
2013-03-11 10:52:00,34.0,20.0,-100.00,South,179,6.0,10.0,57,0.00,,,0.35,413.000000,,2013-03-11 16:52:00,
2013-03-11 11:42:00,37.0,25.0,-100.00,SSW,196,6.0,11.0,61,0.00,,,-99.99,570.000000,,2013-03-11 17:42:00,
2013-03-11 11:53:00,37.0,25.0,-100.00,SSW,196,6.0,11.0,61,0.00,,,-99.99,570.000000,,2013-03-11 17:53:00,
2013-03-11 12:02:00,37.0,25.0,-100.00,SSW,196,6.0,11.0,61,0.00,,,-99.99,570.000000,,2013-03-11 18:02:00,
2013-03-11 12:11:00,37.0,25.0,-100.00,SSW,196,6.0,11.0,61,0.00,,,-99.99,570.000000,,2013-03-11 18:11:00,
2013-03-11 12:12:00,39.0,25.0,-100.00,South,175,7.0,12.0,57,0.00,,,0.26,707.000000,,2013-03-11 18:12:00,
2013-03-11 12:33:00,39.0,25.0,-100.00,South,175,7.0,12.0,57,0.00,,,0.26,707.000000,,2013-03-11 18:33:00,
2013-03-11 12:42:00,39.0,25.0,-100.00,South,175,7.0,12.0,57,0.00,,,0.26,707.000000,,2013-03-11 18:42:00,
2013-03-11 12:53:00,39.0,25.0,-100.00,South,175,7.0,12.0,57,0.00,,,0.26,707.000000,,2013-03-11 18:53:00,
2013-03-11 13:02:00,39.0,25.0,-100.00,South,175,7.0,12.0,57,0.00,,,0.26,707.000000,,2013-03-11 19:02:00,
2013-03-11 13:43:00,43.0,25.0,-100.00,South,179,5.0,11.0,49,0.00,,,0.03,765.000000,,2013-03-11 19:43:00,
2013-03-11 13:52:00,43.0,25.0,-100.00,South,179,5.0,11.0,49,0.00,,,0.03,765.000000,,2013-03-11 19:52:00,
2013-03-11 14:11:00,43.0,25.0,-100.00,South,179,5.0,11.0,49,0.00,,,0.03,765.000000,,2013-03-11 20:11:00,
2013-03-11 14:12:00,44.0,23.0,-100.00,WNW,284,4.0,12.0,43,0.00,,,0.00,745.000000,,2013-03-11 20:12:00,
2013-03-11 14:33:00,44.0,23.0,-100.00,WNW,284,4.0,12.0,43,0.00,,,0.00,745.000000,,2013-03-11 20:33:00,
2013-03-11 14:44:00,44.0,23.0,-100.00,WNW,284,4.0,12.0,43,0.00,,,0.00,745.000000,,2013-03-11 20:44:00,
2013-03-11 14:53:00,44.0,23.0,-100.00,WNW,284,4.0,12.0,43,0.00,,,0.00,745.000000,,2013-03-11 20:53:00,
2013-03-11 15:02:00,44.0,23.0,-100.00,WNW,284,4.0,12.0,43,0.00,,,0.00,745.000000,,2013-03-11 21:02:00,
2013-03-11 15:12:00,46.0,25.0,-100.00,SW,222,5.0,11.0,43,0.00,,,0.00,737.000000,,2013-03-11 21:12:00,
2013-03-11 15:33:00,46.0,25.0,-100.00,SW,222,5.0,11.0,43,0.00,,,0.00,737.000000,,2013-03-11 21:33:00,
2013-03-11 15:44:00,46.0,25.0,-100.00,SW,222,5.0,11.0,43,0.00,,,0.00,737.000000,,2013-03-11 21:44:00,
2013-03-11 15:53:00,46.0,25.0,-100.00,SW,222,5.0,11.0,43,0.00,,,0.00,737.000000,,2013-03-11 21:53:00,
2013-03-11 16:12:00,47.0,25.0,-100.00,WSW,238,5.0,11.0,41,0.00,,,0.00,606.000000,,2013-03-11 22:12:00,
2013-03-11 16:33:00,47.0,25.0,-100.00,WSW,238,5.0,11.0,41,0.00,,,0.00,606.000000,,2013-03-11 22:33:00,
2013-03-11 16:43:00,47.0,25.0,-100.00,WSW,238,5.0,11.0,41,0.00,,,0.00,606.000000,,2013-03-11 22:43:00,
2013-03-11 16:53:00,47.0,25.0,-100.00,WSW,238,5.0,11.0,41,0.00,,,0.00,606.000000,,2013-03-11 22:53:00,
2013-03-11 17:02:00,47.0,25.0,-100.00,WSW,238,5.0,11.0,41,0.00,,,0.00,606.000000,,2013-03-11 23:02:00,
2013-03-11 17:12:00,44.0,23.0,-100.00,SSW,200,5.0,11.0,44,0.00,,,0.00,161.000000,,2013-03-11 23:12:00,
2013-03-11 17:33:00,44.0,23.0,-100.00,SSW,200,5.0,11.0,44,0.00,,,0.00,161.000000,,2013-03-11 23:33:00,
2013-03-11 17:43:00,44.0,23.0,-100.00,SSW,200,5.0,11.0,44,0.00,,,0.00,161.000000,,2013-03-11 23:43:00,
2013-03-11 17:53:00,44.0,23.0,-100.00,SSW,200,5.0,11.0,44,0.00,,,0.00,161.000000,,2013-03-11 23:53:00,
2013-03-11 18:02:00,44.0,23.0,-100.00,SSW,200,5.0,11.0,44,0.00,,,0.00,161.000000,,2013-03-12 00:02:00,
2013-03-11 18:33:00,43.0,21.0,-100.00,WSW,238,5.0,12.0,41,0.00,,,0.00,200.000000,,2013-03-12 00:33:00,
2013-03-11 18:43:00,43.0,21.0,-100.00,WSW,238,5.0,12.0,41,0.00,,,0.00,200.000000,,2013-03-12 00:43:00,
2013-03-11 18:53:00,43.0,21.0,-100.00,WSW,238,5.0,12.0,41,0.00,,,0.00,200.000000,,2013-03-12 00:53:00,
2013-03-11 19:02:00,43.0,21.0,-100.00,WSW,238,5.0,12.0,41,0.00,,,0.00,200.000000,,2013-03-12 01:02:00,
2013-03-11 19:11:00,43.0,21.0,-100.00,WSW,238,5.0,12.0,41,0.00,,,0.00,200.000000,,2013-03-12 01:11:00,
2013-03-11 19:12:00,38.0,19.0,-100.00,WSW,243,5.0,9.0,45,0.00,,,0.00,53.000000,,2013-03-12 01:12:00,
2013-03-11 19:33:00,38.0,19.0,-100.00,WSW,243,5.0,9.0,45,0.00,,,0.00,53.000000,,2013-03-12 01:33:00,
2013-03-11 19:42:00,38.0,19.0,-100.00,WSW,243,5.0,9.0,45,0.00,,,0.00,53.000000,,2013-03-12 01:42:00,
2013-03-11 19:52:00,38.0,19.0,-100.00,WSW,243,5.0,9.0,45,0.00,,,0.00,53.000000,,2013-03-12 01:52:00,
2013-03-11 20:02:00,38.0,19.0,-100.00,WSW,243,5.0,9.0,45,0.00,,,0.00,53.000000,,2013-03-12 02:02:00,
2013-03-11 20:12:00,35.0,18.0,-100.00,SW,221,6.0,13.0,49,0.00,,,0.00,1.000000,,2013-03-12 02:12:00,
2013-03-11 20:32:00,35.0,18.0,-100.00,SW,221,6.0,13.0,49,0.00,,,0.00,1.000000,,2013-03-12 02:32:00,
2013-03-11 20:43:00,35.0,18.0,-100.00,SW,221,6.0,13.0,49,0.00,,,0.00,1.000000,,2013-03-12 02:43:00,
2013-03-11 20:52:00,35.0,18.0,-100.00,SW,221,6.0,13.0,49,0.00,,,0.00,1.000000,,2013-03-12 02:52:00,
2013-03-11 21:02:00,35.0,18.0,-100.00,SW,221,6.0,13.0,49,0.00,,,0.00,1.000000,,2013-03-12 03:02:00,
2013-03-11 21:12:00,35.0,18.0,-100.00,NW,311,6.0,9.0,50,0.00,,,0.00,0.000000,,2013-03-12 03:12:00,
2013-03-11 21:42:00,35.0,18.0,-100.00,NW,311,6.0,9.0,50,0.00,,,0.00,0.000000,,2013-03-12 03:42:00,
2013-03-11 21:52:00,35.0,18.0,-100.00,NW,311,6.0,9.0,50,0.00,,,0.00,0.000000,,2013-03-12 03:52:00,
2013-03-11 22:02:00,35.0,18.0,-100.00,NW,311,6.0,9.0,50,0.00,,,0.00,0.000000,,2013-03-12 04:02:00,
2013-03-11 22:32:00,34.0,22.0,-100.00,NNW,327,5.0,9.0,60,0.00,,,0.00,0.000000,,2013-03-12 04:32:00,
2013-03-11 22:43:00,34.0,22.0,-100.00,NNW,327,5.0,9.0,60,0.00,,,0.00,0.000000,,2013-03-12 04:43:00,
2013-03-11 22:52:00,34.0,22.0,-100.00,NNW,327,5.0,9.0,60,0.00,,,0.00,0.000000,,2013-03-12 04:52:00,
2013-03-11 23:02:00,34.0,22.0,-100.00,NNW,327,5.0,9.0,60,0.00,,,0.00,0.000000,,2013-03-12 05:02:00,
2013-03-11 23:11:00,34.0,22.0,-100.00,NNW,327,5.0,9.0,60,0.00,,,0.00,0.000000,,2013-03-12 05:11:00,
2013-03-11 23:32:00,33.0,21.0,-100.00,NNW,340,3.0,5.0,61,0.00,,,0.00,0.000000,,2013-03-12 05:32:00,
2013-03-11 23:42:00,33.0,21.0,-100.00,NNW,340,3.0,5.0,61,0.00,,,0.00,0.000000,,2013-03-12 05:42:00,
2013-03-11 23:52:00,33.0,21.0,-100.00,NNW,340,3.0,5.0,61,0.00,,,0.00,0.000000,,2013-03-12 05:52:00,